Stations météo

réclame
Mon MeteoGroup
Figari, France (7780): Température de l'air & dewpoint: 14.11.2017 12:00:00 - 20.11.2017 12:00:00 (CET)Figari, France (7780): Température de l'air 5cm: 14.11.2017 12:00:00 - 20.11.2017 12:00:00 (CET)Figari, France (7780): Vitesse du vent & gusts: 14.11.2017 12:00:00 - 20.11.2017 12:00:00 (CET)Figari, France (7780): Direction du vent: 14.11.2017 12:00:00 - 20.11.2017 12:00:00 (CET)Figari, France (7780): reduced air pressure: 14.11.2017 12:00:00 - 20.11.2017 12:00:00 (CET)Figari, France (7780): visibility: 14.11.2017 12:00:00 - 20.11.2017 12:00:00 (CET)Figari, France (7780): Ensoleillement: 14.11.2017 12:00:00 - 20.11.2017 12:00:00 (CET)Figari, France (7780): Quantités de précipitations: 14.11.2017 12:00:00 - 20.11.2017 12:00:00 (CET)
Date & Time tt [°C] td [°C] tt 5cm [°C] ff [km/h] ff [knt] fx [km/h] fx [knt] dd ppp [hPa] vv [km] sd [min] rr [mm]
20.11.2017 12:00:00 16,6 7,8 18,7 9 5 19 10 ESE 1020,8 10 17 0,0
20.11.2017 11:00:00 16,6 9,0 18,8 8 4 19 11 - 1021,1 10 37 0,0
20.11.2017 10:00:00 15,6 10,1 16,7 8 4 18 10 NE 1020,9 10 60 0,0
20.11.2017 09:00:00 11,4 8,4 0,8 8 4 13 7 ENE 1020,7 10 60 0,0
20.11.2017 08:00:00 1,1 0,8 -3,0 5 3 11 6 ENE 1020,2 10 10 0,0
20.11.2017 07:00:00 0,0 -0,4 -3,1 4 2 9 5 NE 1019,5 15 0 0,0
20.11.2017 06:00:00 0,6 0,3 -3,0 8 4 10 6 NE 1019,1 7 0 0,0
20.11.2017 05:00:00 0,8 0,5 -2,6 5 3 11 6 NNE 1018,5 10 0 0,0
20.11.2017 04:00:00 1,2 0,9 -2,7 5 3 10 5 NNE 1018,2 10 0 0,0
20.11.2017 03:00:00 1,3 0,9 -2,6 5 3 10 5 NE 1018,1 10 0 0,0
20.11.2017 02:00:00 1,5 1,1 -2,3 8 4 10 6 NE 1018,2 10 0 0,0
20.11.2017 01:00:00 1,5 1,1 -2,4 4 2 9 5 - 1017,8 10 0 0,0
20.11.2017 00:00:00 1,8 1,2 -2,2 8 4 10 5 NE 1017,7 10 0 0,0
19.11.2017 23:00:00 1,7 1,0 -2,1 5 3 11 6 ENE 1017,4 10 0 0,0
19.11.2017 22:00:00 2,4 1,5 -1,7 4 2 10 6 - 1016,9 10 0 0,0
19.11.2017 21:00:00 3,5 2,6 -1,4 8 4 10 5 NNE 1016,4 10 0 0,0
19.11.2017 20:00:00 4,8 3,1 -0,2 8 4 17 9 NNE 1015,8 10 0 0,0
19.11.2017 19:00:00 10,1 6,8 3,9 12 6 24 13 SW 1015,2 38 0 0,0
19.11.2017 18:00:00 11,6 7,1 9,5 16 9 29 16 W 1014,2 10 0 0,0
19.11.2017 17:00:00 12,3 7,4 10,3 15 8 27 15 WSW 1013,6 10 2 0,0
19.11.2017 16:00:00 13,9 7,4 13,8 16 9 33 18 W 1013,6 10 32 0,0
19.11.2017 15:00:00 14,4 7,2 15,0 24 13 36 19 W 1013,9 40 5 0,0
19.11.2017 14:00:00 14,8 7,3 15,2 24 13 40 22 W 1014,1 10 13 0,0
19.11.2017 13:00:00 14,2 7,9 15,0 26 14 45 25 WSW 1014,5 10 0 0,0
19.11.2017 12:00:00 14,0 7,7 14,6 24 13 48 26 WSW 1015,1 10 16 0,0
19.11.2017 11:00:00 15,5 9,4 15,5 29 16 42 23 SW 1015,2 38 18 0,0
19.11.2017 10:00:00 14,9 10,5 15,3 22 12 36 20 WSW 1015,8 10 35 0,0
19.11.2017 09:00:00 12,2 11,4 3,7 15 8 21 11 WSW 1015,9 10 52 0,0
19.11.2017 08:00:00 3,3 3,2 -1,5 2 1 9 5 - 1015,8 10 11 0,0
19.11.2017 07:00:00 2,4 1,7 -1,5 4 2 10 6 NNE 1015,7 10 0 0,0
19.11.2017 06:00:00 4,9 4,6 -0,9 5 3 10 5 NNE 1015,9 10 0 0,0
19.11.2017 05:00:00 6,2 6,1 -1,4 5 3 18 10 - 1015,9 10 0 0,0
19.11.2017 04:00:00 2,3 1,6 -1,2 8 4 13 7 SW 1016,1 10 0 0,0
19.11.2017 03:00:00 3,5 2,9 0,2 4 2 7 4 NNE 1016,7 12 0 0,0
19.11.2017 02:00:00 4,5 4,1 2,1 4 2 7 4 - 1016,8 10 0 0,0
19.11.2017 01:00:00 3,6 3,0 0,6 4 2 6 3 NNE 1017,2 10 0 0,0
19.11.2017 00:00:00 4,3 3,7 1,1 2 1 10 6 - 1017,9 10 0 0,0
18.11.2017 23:00:00 4,1 3,5 0,4 5 3 8 5 NE 1018,0 10 0 0,0
18.11.2017 22:00:00 4,8 3,8 0,7 4 2 9 5 - 1017,8 10 0 0,0
18.11.2017 21:00:00 6,7 6,0 1,3 5 3 8 5 NE 1017,5 16 0 0,0
18.11.2017 20:00:00 7,0 5,5 1,9 5 3 8 4 NNE 1017,4 10 0 0,0
18.11.2017 19:00:00 10,3 8,2 3,9 5 3 8 4 NNE 1017,1 10 0 0,0
18.11.2017 18:00:00 13,6 9,4 11,7 5 3 13 7 ENE 1016,8 35 0 0,0
18.11.2017 17:00:00 14,8 9,2 13,5 8 4 23 13 ENE 1016,5 47 43 0,0
18.11.2017 16:00:00 16,8 9,2 16,6 9 5 16 9 SSW 1016,0 10 11 0,0
18.11.2017 15:00:00 16,9 9,1 17,7 5 3 17 9 SW 1015,9 10 0 0,0
18.11.2017 14:00:00 17,9 8,7 20,0 4 2 11 6 - 1015,9 10 24 0,0
18.11.2017 13:00:00 17,0 8,4 19,8 8 4 17 9 E 1016,3 10 43 0,0
18.11.2017 12:00:00 17,1 8,5 21,8 11 6 23 13 NE 1016,6 10 60 0,0
18.11.2017 11:00:00 16,1 8,6 16,2 15 8 24 13 ENE 1017,0 10 15 0,0
18.11.2017 10:00:00 13,9 10,5 12,3 8 4 14 8 E 1016,9 10 5 0,0
18.11.2017 09:00:00 11,5 9,7 7,9 8 4 13 7 NNE 1016,6 53 4 0,0
18.11.2017 08:00:00 9,1 8,3 5,9 5 3 10 6 NE 1016,3 10 0 0,0
18.11.2017 07:00:00 7,5 6,9 1,9 9 5 11 6 NNE 1015,9 10 0 0,0
18.11.2017 06:00:00 8,0 8,0 -0,8 9 5 17 9 ENE 1015,7 38 0 0,0
18.11.2017 05:00:00 2,4 1,8 -0,8 4 2 9 5 NNE 1015,7 10 0 0,0
18.11.2017 04:00:00 3,3 3,0 -0,6 2 1 8 4 - 1015,7 10 0 0,0
18.11.2017 03:00:00 3,0 2,4 -0,5 3 1 6 4 SE 1015,9 12 0 0,0
18.11.2017 02:00:00 3,7 3,3 0,2 5 3 10 5 NNE 1016,2 10 0 0,0
18.11.2017 01:00:00 3,7 3,3 0,3 3 1 8 5 E 1016,5 15 0 0,0
18.11.2017 00:00:00 3,7 3,1 0,3 4 2 8 4 - 1016,6 10 0 0,0
17.11.2017 23:00:00 4,4 3,8 0,6 4 2 7 4 NE 1016,6 10 0 0,0
17.11.2017 22:00:00 5,1 4,4 0,8 8 4 9 5 NE 1016,6 10 0 0,0
17.11.2017 21:00:00 6,5 5,8 1,6 2 1 8 4 ESE 1016,3 10 0 0,0
17.11.2017 20:00:00 8,0 7,4 2,7 8 4 10 5 NE 1016,1 10 0 0,0
17.11.2017 19:00:00 10,5 8,6 4,2 5 3 11 6 NNW 1015,7 10 0 0,0
17.11.2017 18:00:00 12,7 9,1 6,5 5 3 23 12 NNE 1015,3 10 0 0,0
17.11.2017 17:00:00 14,4 9,6 12,7 18 10 26 14 WSW 1014,9 10 37 0,0
17.11.2017 16:00:00 17,2 10,1 17,2 16 9 27 14 SW 1015,0 10 60 0,0
17.11.2017 15:00:00 18,0 8,8 22,2 11 6 26 14 SSW 1015,2 10 60 0,0
17.11.2017 14:00:00 18,2 9,8 22,9 15 8 23 12 SW 1015,5 10 60 0,0
17.11.2017 13:00:00 18,4 9,5 26,1 9 5 20 11 SW 1015,7 60 60 0,0
17.11.2017 12:00:00 18,6 9,4 24,2 9 5 18 10 SSW 1016,1 10 60 0,0
17.11.2017 11:00:00 17,9 9,3 23,8 5 3 13 7 SW 1016,7 10 60 0,0
17.11.2017 10:00:00 16,4 10,5 17,2 2 1 8 5 - 1016,7 10 60 0,0
17.11.2017 09:00:00 10,4 9,8 4,4 4 2 6 3 - 1016,8 10 60 0,0
17.11.2017 08:00:00 4,3 4,3 -1,2 4 2 11 6 - 1016,6 10 14 0,0
17.11.2017 07:00:00 1,9 1,5 -1,2 2 1 9 5 NNE 1016,2 10 0 0,0
17.11.2017 06:00:00 2,2 1,9 -1,1 4 2 11 6 - 1016,0 10 0 0,0
17.11.2017 05:00:00 3,0 2,9 -1,3 7 4 11 6 NE 1015,8 45 0 0,0
17.11.2017 04:00:00 2,4 1,8 -1,2 4 2 11 6 NNE 1016,1 10 0 0,0
17.11.2017 03:00:00 2,6 2,3 -1,2 8 4 10 5 NE 1016,5 10 0 0,0
17.11.2017 02:00:00 2,9 2,5 -1,3 3 1 10 5 NNE 1016,6 36 0 0,0
17.11.2017 01:00:00 3,4 3,0 -1,2 8 4 10 5 NNE 1016,8 10 0 0,0
17.11.2017 00:00:00 4,1 3,7 -0,7 5 3 8 5 NNE 1016,9 10 0 0,0
16.11.2017 23:00:00 5,1 4,8 0,1 4 2 14 8 - 1016,9 10 0 0,0
16.11.2017 22:00:00 4,7 4,3 0,4 5 3 8 4 NE 1016,6 10 0 0,0
16.11.2017 21:00:00 5,3 4,4 0,7 4 2 9 5 - 1016,4 10 0 0,0
16.11.2017 20:00:00 7,0 6,1 1,8 5 3 9 5 ENE 1016,1 10 0 0,0
16.11.2017 19:00:00 9,4 7,7 3,8 7 4 9 5 NNE 1016,0 34 0 0,0
16.11.2017 18:00:00 11,8 9,5 9,0 0 0 10 5 N 1016,0 10 0 0,0
16.11.2017 17:00:00 14,2 10,2 10,7 9 5 23 12 SW 1016,0 60 24 0,0
16.11.2017 16:00:00 16,9 9,8 16,3 15 8 24 13 W 1015,9 10 30 0,0
16.11.2017 15:00:00 16,7 10,8 16,4 15 8 31 17 WSW 1016,0 48 3 0,0
16.11.2017 14:00:00 16,5 10,8 17,0 20 11 31 17 SW 1016,0 44 15 0,0
16.11.2017 13:00:00 17,1 10,5 20,9 21 11 31 17 SW 1016,5 10 56 0,0
16.11.2017 12:00:00 18,5 8,2 24,2 8 4 17 9 SSW 1017,1 10 60 0,0
16.11.2017 11:00:00 17,9 7,3 22,6 9 5 15 8 SSW 1017,5 10 - -
16.11.2017 10:00:00 16,1 7,0 18,7 8 4 22 12 ENE 1017,0 10 60 0,0
16.11.2017 09:00:00 13,5 7,5 9,3 5 3 14 8 NE 1016,9 10 54 0,0
16.11.2017 08:00:00 8,0 6,9 0,5 5 3 18 10 ENE 1016,7 10 16 0,0
16.11.2017 07:00:00 5,9 4,5 0,4 8 5 16 9 ENE 1016,4 60 0 0,0
16.11.2017 06:00:00 6,7 5,2 1,3 5 3 11 6 NNE 1015,9 10 0 0,0
16.11.2017 05:00:00 8,3 6,4 2,9 8 4 16 8 NNE 1015,8 10 0 0,0
16.11.2017 04:00:00 9,7 7,1 6,2 8 4 18 10 NE 1015,6 10 0 0,0
16.11.2017 03:00:00 10,1 7,3 6,8 9 5 16 8 NE 1015,7 10 0 0,0
16.11.2017 02:00:00 10,6 8,0 7,6 8 4 14 8 ENE 1016,1 10 0 0,0
16.11.2017 01:00:00 11,4 8,3 9,2 5 3 11 6 NE 1015,9 10 0 0,0
16.11.2017 00:00:00 12,3 7,8 10,9 8 4 32 18 ENE 1016,0 10 0 0,0
15.11.2017 23:00:00 12,4 7,5 10,8 18 10 38 21 NE 1015,9 10 0 0,0
15.11.2017 22:00:00 12,4 7,3 10,0 11 6 26 14 NE 1015,9 10 0 0,0
15.11.2017 21:00:00 12,8 6,8 10,0 13 7 29 16 NNE 1015,5 10 0 0,0
15.11.2017 20:00:00 13,4 7,2 11,5 15 8 35 19 E 1015,4 10 0 0,0
15.11.2017 19:00:00 13,8 6,6 11,5 13 7 48 26 ENE 1015,0 10 0 0,0
15.11.2017 18:00:00 14,5 6,6 12,3 21 11 35 19 NE 1014,4 10 0 0,0
15.11.2017 17:00:00 14,6 6,4 13,4 13 7 29 16 ENE 1014,5 10 0 0,0
15.11.2017 16:00:00 15,0 6,5 14,4 18 10 41 22 ENE 1014,1 10 2 0,0
15.11.2017 15:00:00 16,2 6,6 17,5 26 14 48 26 NE 1013,6 10 56 0,0
15.11.2017 14:00:00 16,0 6,7 17,1 22 12 49 27 NE 1013,3 10 11 0,0
15.11.2017 13:00:00 17,0 6,5 16,6 28 15 48 26 ENE 1013,2 10 36 0,0
15.11.2017 12:00:00 15,4 5,6 14,7 16 9 47 26 NE 1013,7 10 0 0,0
15.11.2017 11:00:00 15,0 5,2 14,9 22 12 51 28 NE 1013,9 10 0 0,0
15.11.2017 10:00:00 15,4 4,4 15,3 15 8 32 18 ENE 1013,3 10 11 0,0
15.11.2017 09:00:00 14,9 4,3 12,5 5 3 22 12 SW 1012,7 10 13 0,0
15.11.2017 08:00:00 13,5 3,6 11,8 11 6 46 25 ENE 1012,3 10 0 0,0
15.11.2017 07:00:00 13,3 3,1 11,5 11 6 36 19 ENE 1012,0 10 0 0,0
15.11.2017 06:00:00 13,3 2,2 11,1 32 17 59 32 ENE 1011,1 60 0 0,0
15.11.2017 05:00:00 13,3 2,5 11,3 24 13 56 31 NE 1010,7 10 0 0,0
15.11.2017 04:00:00 13,0 3,1 6,8 16 9 36 19 ENE 1011,2 10 0 0,0
15.11.2017 03:00:00 9,5 4,3 5,0 4 2 14 8 - 1011,3 10 0 0,0
15.11.2017 02:00:00 8,6 3,8 5,7 4 2 18 10 - 1011,4 10 0 0,0
15.11.2017 01:00:00 10,7 3,0 6,4 11 6 20 11 ENE 1011,8 10 0 0,0
15.11.2017 00:00:00 7,5 4,8 5,6 5 3 15 8 - 1012,3 10 0 0,0
14.11.2017 23:00:00 7,0 4,6 4,6 4 2 13 7 - 1012,5 10 0 0,0
14.11.2017 22:00:00 7,7 4,3 3,6 4 2 21 12 ENE 1012,4 60 0 0,0
14.11.2017 21:00:00 8,1 3,4 4,4 5 3 12 7 - 1011,9 10 0 0,0
14.11.2017 20:00:00 10,9 3,4 5,9 5 3 15 8 W 1011,9 60 0 0,0
14.11.2017 19:00:00 12,1 3,3 9,0 8 4 54 29 ENE 1011,9 10 0 0,0
14.11.2017 18:00:00 12,5 4,0 9,9 26 14 49 26 NE 1010,9 10 0 0,0
14.11.2017 17:00:00 11,9 4,1 10,1 21 11 50 27 NE 1010,6 10 0 0,0
14.11.2017 16:00:00 12,4 4,8 11,9 22 12 72 39 NE 1010,1 10 17 0,0
14.11.2017 15:00:00 13,7 4,8 11,0 39 21 70 38 NE 1009,3 10 28 0,0
14.11.2017 14:00:00 14,2 4,5 14,3 31 17 65 35 NE 1009,2 10 22 0,0
14.11.2017 13:00:00 13,3 5,0 12,9 29 16 59 32 NE 1009,5 10 4 0,0
14.11.2017 12:00:00 12,8 5,0 12,8 31 17 63 34 NE 1009,5 38 30 0,0

tt = Température de l'air
td = dewpoint
tt 5cm = Température de l'air 5cm
ff = Vitesse du vent
fx = gusts
dd = Direction du vent
ppp = reduced air pressure
vv = visibility
sd = Ensoleillement
rr = Quantités de précipitations

stations d'obs. à proximité